Date String (YYYY-MM-DD hh:mm:ss) UTC,Instrument flags,absolute air pressure of the measurement (hPa),sample flow rate (lpm),inlet stack bypass flow (lpm),air temperature of the measurement (°C),ambient temperature measured by the external sensor (°C),aerosol sample conditioner tube jacket temperature (°C),OPC LED temperature (°C),internal box temperature (°C),relative humidity of the measurement (%),span deviation,mass concentration of particles derived from Lorenz-Mie calculation of OPC scattering (μg/m³),mass concentration of particles derived from Lorenz-Mie calculation of OPC scattering (μg/m³),mass concentration of particles derived from Lorenz-Mie calculation of OPC scattering (μg/m³)
DateTimeUTC,F1_M11,P_M11,Q1_M11,Q2_M11,T1_M11,T2_M11,T3_M11,T4_M11,T5_M11,U1_M11,ZSPAN_M11,X2_M11,X0_M11,X1_M11
2023-11-20 09:00:00,SystemResetWarning,0825.3,5.00,000.00,024.2,023.2,000.0,032.5,025.5,12.6,0000.0,0001.79,0002.31,0001.61
2023-11-20 09:01:00,SystemResetWarning,0825.3,5.00,000.00,024.2,023.2,000.0,032.5,025.5,12.6,0000.0,0001.79,0002.39,0001.62
2023-11-20 09:02:00,SystemResetWarning,0825.4,5.00,000.00,024.2,023.2,000.0,032.5,025.6,12.6,0000.0,0001.80,0002.34,0001.63
2023-11-20 09:03:00,SystemResetWarning,0825.3,5.00,000.00,024.2,023.2,000.0,032.5,025.6,12.5,0000.0,0001.81,0002.35,0001.64
2023-11-20 09:04:00,SystemResetWarning,0825.4,5.00,000.00,024.2,023.3,000.0,032.5,025.6,12.5,0000.0,0001.83,0002.39,0001.64
2023-11-20 09:05:00,SystemResetWarning,0825.4,5.00,000.00,024.2,023.3,000.0,032.6,025.6,12.5,0000.0,0001.86,0002.42,0001.66
2023-11-20 09:06:00,SystemResetWarning,0825.4,5.00,000.00,024.3,023.3,000.0,032.6,025.6,12.5,0000.0,0001.89,0002.48,0001.66
2023-11-20 09:07:00,SystemResetWarning,0825.4,5.00,000.00,024.3,023.3,000.0,032.6,025.6,12.5,0000.0,0001.91,0002.53,0001.67
2023-11-20 09:08:00,SystemResetWarning,0825.5,5.01,000.00,024.3,023.3,000.0,032.6,025.6,12.5,0000.0,0001.90,0002.50,0001.68
2023-11-20 09:09:00,SystemResetWarning,0825.5,5.00,000.00,024.3,023.3,000.0,032.6,025.6,12.5,0000.0,0001.91,0002.52,0001.69
2023-11-20 09:10:00,SystemResetWarning,0825.5,5.00,000.00,024.3,023.3,000.0,032.6,025.6,12.4,0000.0,0001.94,0002.56,0001.70
2023-11-20 09:11:00,SystemResetWarning,0825.5,5.00,000.00,024.3,023.4,000.0,032.6,025.6,12.4,0000.0,0001.93,0002.54,0001.70
2023-11-20 09:12:00,SystemResetWarning,0825.5,5.00,000.00,024.3,023.4,000.0,032.6,025.6,12.5,0000.0,0001.91,0002.39,0001.69
2023-11-20 09:13:00,SystemResetWarning,0825.6,5.00,000.00,024.3,023.4,000.0,032.6,025.6,12.5,0000.0,0001.89,0002.35,0001.69
2023-11-20 09:14:00,SystemResetWarning,0825.6,5.00,000.00,024.3,023.4,000.0,032.6,025.6,12.5,0000.0,0001.89,0002.34,0001.69
2023-11-20 09:15:00,SystemResetWarning,0825.7,5.00,000.00,024.3,023.4,000.0,032.6,025.6,12.5,0000.0,0001.89,0002.42,0001.70
2023-11-20 09:16:00,SystemResetWarning,0825.7,5.00,000.00,024.3,023.4,000.0,032.6,025.6,12.5,0000.0,0001.89,0002.44,0001.69
2023-11-20 09:17:00,SystemResetWarning,0825.7,4.99,000.00,024.3,023.4,000.0,032.6,025.6,12.5,0000.0,0001.88,0002.43,0001.69
2023-11-20 09:18:00,SystemResetWarning,0825.7,5.00,000.00,024.3,023.4,000.0,032.6,025.7,12.5,0000.0,0001.86,0002.40,0001.69
2023-11-20 09:19:00,SystemResetWarning,0825.7,5.00,000.00,024.3,023.4,000.0,032.6,025.7,12.5,0000.0,0001.88,0002.43,0001.68
2023-11-20 09:20:00,SystemResetWarning,0825.8,5.01,000.00,024.3,023.4,000.0,032.6,025.6,12.5,0000.0,0001.87,0002.40,0001.69
2023-11-20 09:21:00,SystemResetWarning,0825.8,5.00,000.00,024.3,023.4,000.0,032.6,025.7,12.5,0000.0,0001.85,0002.35,0001.69
2023-11-20 09:22:00,SystemResetWarning,0825.8,5.02,000.00,024.4,023.4,000.0,032.6,025.7,12.5,0000.0,0001.87,0002.40,0001.70
2023-11-20 09:23:00,SystemResetWarning,0825.8,5.00,000.00,024.3,023.4,000.0,032.6,025.7,12.5,0000.0,0001.88,0002.39,0001.70
2023-11-20 09:24:00,SystemResetWarning,0825.8,4.99,000.00,024.4,023.4,000.0,032.6,025.6,12.6,0000.0,0001.89,0002.40,0001.70
2023-11-20 09:25:00,SystemResetWarning,0825.9,4.99,000.00,024.4,023.4,000.0,032.6,025.6,12.6,0000.0,0001.90,0002.43,0001.71
2023-11-20 09:26:00,SystemResetWarning,0825.9,4.99,000.00,024.4,023.4,000.0,032.6,025.7,12.7,0000.0,0001.91,0002.42,0001.71
2023-11-20 09:27:00,SystemResetWarning,0825.9,5.01,000.00,024.4,023.4,000.0,032.6,025.7,12.7,0000.0,0001.93,0002.41,0001.72
2023-11-20 09:28:00,SystemResetWarning,0825.9,5.02,000.00,024.4,023.4,000.0,032.7,025.7,12.7,0000.0,0001.93,0002.42,0001.72
2023-11-20 09:29:00,SystemResetWarning,0825.9,5.00,000.00,024.4,023.4,000.0,032.7,025.7,12.6,0000.0,0001.94,0002.46,0001.73
2023-11-20 09:30:00,SystemResetWarning,0825.9,5.00,000.00,024.4,023.4,000.0,032.7,025.7,12.7,0000.0,0001.95,0002.44,0001.73
2023-11-20 09:31:00,SystemResetWarning,0825.9,5.00,000.00,024.4,023.3,000.0,032.7,025.6,12.7,0000.0,0001.94,0002.46,0001.72
2023-11-20 09:32:00,SystemResetWarning,0825.9,4.99,000.00,024.3,023.3,000.0,032.7,025.6,12.6,0000.0,0001.95,0002.50,0001.72
2023-11-20 09:33:00,SystemResetWarning,0825.9,5.00,000.00,024.3,023.3,000.0,032.7,025.6,12.7,0000.0,0001.94,0002.46,0001.71
2023-11-20 09:34:00,SystemResetWarning,0825.9,5.00,000.00,024.3,023.3,000.0,032.7,025.6,12.7,0000.0,0001.92,0002.42,0001.70
2023-11-20 09:35:00,SystemResetWarning,0825.9,5.00,000.00,024.3,023.3,000.0,032.7,025.6,12.7,0000.0,0001.95,0002.46,0001.71
2023-11-20 09:36:00,SystemResetWarning,0825.9,5.01,000.00,024.3,023.3,000.0,032.7,025.6,12.7,0000.0,0001.95,0002.46,0001.70
2023-11-20 09:37:00,SystemResetWarning,0825.9,5.00,000.00,024.3,023.3,000.0,032.7,025.6,12.7,0000.0,0001.94,0002.44,0001.70
2023-11-20 09:38:00,SystemResetWarning,0825.9,5.00,000.00,024.3,023.3,000.0,032.7,025.6,12.7,0000.0,0001.92,0002.44,0001.70
2023-11-20 09:39:00,SystemResetWarning,0826.0,5.00,000.00,024.3,023.2,000.0,032.7,025.6,12.7,0000.0,0001.89,0002.37,0001.69
2023-11-20 09:40:00,SystemResetWarning,0825.9,5.00,000.00,024.3,023.2,000.0,032.7,025.5,12.8,0000.0,0001.87,0002.89,0001.68
2023-11-20 09:41:00,SystemResetWarning,0825.9,5.00,000.00,024.3,023.2,000.0,032.7,025.6,12.8,0000.0,0001.86,0003.04,0001.69
2023-11-20 09:42:00,SystemResetWarning,0826.0,5.00,000.00,024.3,023.2,000.0,032.6,025.5,12.8,0000.0,0001.88,0003.04,0001.71
2023-11-20 09:43:00,SystemResetWarning,0826.0,5.00,000.00,024.3,023.2,000.0,032.6,025.5,12.8,0000.0,0001.87,0003.02,0001.71
2023-11-20 09:44:00,SystemResetWarning,0826.0,5.00,000.00,024.3,023.2,000.0,032.6,025.5,12.8,0000.0,0001.87,0003.01,0001.72
2023-11-20 09:45:00,SystemResetWarning,0826.0,5.00,000.00,024.2,023.1,000.0,032.6,025.5,12.9,0000.0,0001.88,0003.04,0001.72
2023-11-20 09:46:00,SystemResetWarning,0826.0,5.00,000.00,024.2,023.1,000.0,032.6,025.5,12.9,0000.0,0001.87,0003.04,0001.73
2023-11-20 09:47:00,SystemResetWarning,0826.0,5.00,000.00,024.2,023.1,000.0,032.6,025.5,12.9,0000.0,0001.88,0003.06,0001.73
2023-11-20 09:48:00,SystemResetWarning,0826.1,4.99,000.00,024.2,023.1,000.0,032.6,025.5,13.0,0000.0,0001.89,0003.05,0001.74
2023-11-20 09:49:00,SystemResetWarning,0826.0,4.99,000.00,024.2,023.0,000.0,032.6,025.5,13.0,0000.0,0001.90,0003.02,0001.75
2023-11-20 09:50:00,SystemResetWarning,0826.0,5.00,000.00,024.2,023.0,000.0,032.6,025.5,12.9,0000.0,0001.93,0003.10,0001.76
2023-11-20 09:51:00,SystemResetWarning,0826.1,5.00,000.00,024.2,023.0,000.0,032.6,025.4,12.9,0000.0,0001.94,0002.75,0001.77
2023-11-20 09:52:00,SystemResetWarning,0826.2,5.01,000.00,024.2,023.0,000.0,032.6,025.5,13.0,0000.0,0001.93,0002.43,0001.76
2023-11-20 09:53:00,SystemResetWarning,0826.1,5.01,000.00,024.2,023.0,000.0,032.6,025.4,12.9,0000.0,0001.92,0002.41,0001.76
2023-11-20 09:54:00,SystemResetWarning,0826.1,5.00,000.00,024.1,023.0,000.0,032.6,025.4,12.9,0000.0,0001.93,0002.44,0001.76
2023-11-20 09:55:00,SystemResetWarning,0826.2,4.99,000.00,024.1,023.0,000.0,032.5,025.4,12.9,0000.0,0001.95,0002.82,0001.77
2023-11-20 09:56:00,SystemResetWarning,0826.2,5.00,000.00,024.1,022.9,000.0,032.5,025.4,12.9,0000.0,0001.97,0003.82,0001.78
2023-11-20 09:57:00,SystemResetWarning,0826.2,4.99,000.00,024.1,022.9,000.0,032.5,025.4,12.9,0000.0,0001.95,0003.79,0001.79
2023-11-20 09:58:00,SystemResetWarning,0826.2,5.00,000.00,024.1,022.9,000.0,032.5,025.4,12.9,0000.0,0001.96,0003.79,0001.79
2023-11-20 09:59:00,SystemResetWarning,0826.2,5.00,000.00,024.1,022.9,000.0,032.5,025.3,13.0,0000.0,0001.99,0003.95,0001.80
